,,,PA_Meas_PMT16A,,PR_Meas_QMR101_102,,RH_Meas_QMH101,,SR_Meas_QMS101,,TA_Meas_QMH101,,GenWind,,GenWind,
date,time,status,PA,status,PR,status,RH,status,SR,status,TA,status,DirAvg,status,SpdAvg,
2011-05-27, 00:00:04,VALID,998.319,VALID,0,VALID,90.6323,VALID,0,VALID,23.7793,VALID,1,VALID,0.673437,
2011-05-27, 00:01:04,VALID,998.304,VALID,0,VALID,90.5178,VALID,0,VALID,23.7597,VALID,56,VALID,0.819922,
2011-05-27, 00:02:04,VALID,998.243,VALID,0,VALID,90.617,VALID,0,VALID,23.7189,VALID,347,VALID,1.12891,
2011-05-27, 00:03:04,VALID,998.279,VALID,0,VALID,90.6704,VALID,0.112286,VALID,23.7012,VALID,5,VALID,0.701563,
2011-05-27, 00:04:04,VALID,998.311,VALID,0,VALID,90.6933,VALID,0.112286,VALID,23.6409,VALID,32,VALID,1.41133,
2011-05-27, 00:05:04,VALID,998.291,VALID,0,VALID,90.7925,VALID,0,VALID,23.6019,VALID,34,VALID,0.921875,
2011-05-27, 00:06:04,VALID,998.275,VALID,0,VALID,90.8917,VALID,0,VALID,23.5646,VALID,54,VALID,1.325,
2011-05-27, 00:07:04,VALID,998.224,VALID,0,VALID,91.174,VALID,0.112286,VALID,23.5433,VALID,57,VALID,1.65156,
2011-05-27, 00:08:04,VALID,998.235,VALID,0,VALID,91.3342,VALID,0,VALID,23.5433,VALID,62,VALID,1.02969,
2011-05-27, 00:09:04,VALID,998.195,VALID,0,VALID,91.3342,VALID,0,VALID,23.5043,VALID,56,VALID,1.87422,
2011-05-27, 00:10:04,VALID,998.209,VALID,0,VALID,91.2579,VALID,0,VALID,23.5043,VALID,72,VALID,1.77656,
2011-05-27, 00:11:04,VALID,998.178,VALID,0,VALID,91.2045,VALID,0,VALID,23.4848,VALID,81,VALID,1.47578,
2011-05-27, 00:12:04,VALID,998.181,VALID,0,VALID,91.1968,VALID,0,VALID,23.4866,VALID,68,VALID,0.997266,
2011-05-27, 00:13:04,VALID,998.168,VALID,0,VALID,91.1968,VALID,0,VALID,23.4866,VALID,49,VALID,0.757813,
2011-05-27, 00:14:04,VALID,998.138,VALID,0,VALID,91.1587,VALID,0,VALID,23.4671,VALID,47,VALID,0.857031,
2011-05-27, 00:15:04,VALID,998.171,VALID,0,VALID,91.1892,VALID,0,VALID,23.4653,VALID,52,VALID,0.827344,
2011-05-27, 00:16:04,VALID,998.183,VALID,0,VALID,91.2121,VALID,0,VALID,23.4458,VALID,35,VALID,0.323438,
2011-05-27, 00:17:04,VALID,998.209,VALID,0,VALID,91.2274,VALID,0,VALID,23.4458,VALID,35,VALID,0,
2011-05-27, 00:18:04,VALID,998.155,VALID,0,VALID,91.2655,VALID,0,VALID,23.4458,VALID,35,VALID,0.553125,
2011-05-27, 00:19:04,VALID,998.168,VALID,0,VALID,91.3113,VALID,0,VALID,23.4458,VALID,36,VALID,0.408203,
2011-05-27, 00:20:04,VALID,998.158,VALID,0,VALID,91.38,VALID,0,VALID,23.4458,VALID,71,VALID,0.976172,
2011-05-27, 00:21:04,VALID,998.163,VALID,0,VALID,91.38,VALID,0,VALID,23.4458,VALID,56,VALID,1.0293,
2011-05-27, 00:22:04,VALID,998.125,VALID,0,VALID,91.4486,VALID,0,VALID,23.4866,VALID,54,VALID,1.26172,
2011-05-27, 00:23:04,VALID,998.089,VALID,0,VALID,91.5097,VALID,0.112286,VALID,23.5061,VALID,42,VALID,0.929297,
2011-05-27, 00:24:04,VALID,998.086,VALID,0,VALID,91.5097,VALID,0,VALID,23.4848,VALID,42,VALID,0.644922,
2011-05-27, 00:25:04,VALID,998.134,VALID,0,VALID,91.4639,VALID,0,VALID,23.4653,VALID,42,VALID,0.651953,
2011-05-27, 00:26:04,VALID,998.087,VALID,0,VALID,91.4715,VALID,0,VALID,23.4458,VALID,42,VALID,0.722266,
2011-05-27, 00:27:04,VALID,998.09,VALID,0,VALID,91.4639,VALID,0.112286,VALID,23.4263,VALID,32,VALID,0.673047,
2011-05-27, 00:28:04,VALID,998.038,VALID,0,VALID,91.5249,VALID,0,VALID,23.4067,VALID,25,VALID,0.721875,
2011-05-27, 00:29:04,VALID,998.023,VALID,0,VALID,91.6165,VALID,0,VALID,23.3872,VALID,18,VALID,0.798828,
2011-05-27, 00:30:04,VALID,998.021,VALID,0,VALID,91.708,VALID,0.112286,VALID,23.3872,VALID,358,VALID,0.458594,
2011-05-27, 00:31:04,VALID,998.05,VALID,0,VALID,91.792,VALID,0.112286,VALID,23.3677,VALID,356,VALID,0.059375,
2011-05-27, 00:32:04,VALID,998.036,VALID,0,VALID,91.8988,VALID,0.112286,VALID,23.3872,VALID,356,VALID,0.540625,
2011-05-27, 00:33:04,VALID,998.024,VALID,0,VALID,92.0437,VALID,0.112286,VALID,23.4067,VALID,356,VALID,0.0113281,
2011-05-27, 00:34:04,VALID,998.013,VALID,0,VALID,92.0895,VALID,0,VALID,23.4067,VALID,356,VALID,0,
2011-05-27, 00:35:04,VALID,998.009,VALID,0,VALID,92.1658,VALID,0,VALID,23.4263,VALID,356,VALID,0.0105469,
2011-05-27, 00:36:04,VALID,997.999,VALID,0,VALID,92.2268,VALID,0.112286,VALID,23.4458,VALID,356,VALID,0,
2011-05-27, 00:37:04,VALID,998.008,VALID,0,VALID,92.265,VALID,0,VALID,23.4458,VALID,356,VALID,0,
2011-05-27, 00:38:04,VALID,997.973,VALID,0,VALID,92.2955,VALID,0,VALID,23.4263,VALID,356,VALID,0,
2011-05-27, 00:39:04,VALID,997.969,VALID,0,VALID,92.3337,VALID,0.112286,VALID,23.4263,VALID,356,VALID,0.144922,
2011-05-27, 00:40:04,VALID,997.958,VALID,0,VALID,92.2879,VALID,0,VALID,23.4085,VALID,55,VALID,0.616406,
2011-05-27, 00:41:04,VALID,997.911,VALID,0,VALID,92.3108,VALID,0.112286,VALID,23.3872,VALID,54,VALID,1.32578,
2011-05-27, 00:42:04,VALID,997.94,VALID,0,VALID,92.3184,VALID,0,VALID,23.3677,VALID,58,VALID,1.52617,
2011-05-27, 00:43:04,VALID,997.889,VALID,0,VALID,92.3413,VALID,0.112286,VALID,23.3872,VALID,54,VALID,1.29688,
2011-05-27, 00:44:04,VALID,997.903,VALID,0,VALID,92.3413,VALID,0,VALID,23.4067,VALID,51,VALID,0.917188,
2011-05-27, 00:45:04,VALID,997.878,VALID,0,VALID,92.3184,VALID,0,VALID,23.3872,VALID,36,VALID,0.971094,
2011-05-27, 00:46:04,VALID,997.859,VALID,0,VALID,92.2726,VALID,0,VALID,23.3872,VALID,12,VALID,0.824609,
2011-05-27, 00:47:04,VALID,997.871,VALID,0,VALID,92.2192,VALID,0,VALID,23.4067,VALID,8,VALID,0.858203,
2011-05-27, 00:48:04,VALID,997.871,VALID,0,VALID,92.1734,VALID,0,VALID,23.3872,VALID,351,VALID,0.632813,
2011-05-27, 00:49:04,VALID,997.874,VALID,0,VALID,92.1277,VALID,0,VALID,23.3677,VALID,345,VALID,0.717578,
2011-05-27, 00:50:04,VALID,997.848,VALID,0,VALID,92.0895,VALID,0,VALID,23.3677,VALID,344,VALID,0.886328,
2011-05-27, 00:51:04,VALID,997.88,VALID,0,VALID,92.0437,VALID,0,VALID,23.3677,VALID,344,VALID,0.472656,
2011-05-27, 00:52:04,VALID,997.878,VALID,0,VALID,92.0666,VALID,0.112286,VALID,23.3482,VALID,345,VALID,0.553906,
2011-05-27, 00:53:04,VALID,997.838,VALID,0,VALID,92.0056,VALID,0,VALID,23.3287,VALID,345,VALID,0.499609,
2011-05-27, 00:54:04,VALID,997.827,VALID,0,VALID,92.0132,VALID,0,VALID,23.3092,VALID,345,VALID,0,
2011-05-27, 00:55:04,VALID,997.794,VALID,0,VALID,92.0361,VALID,0,VALID,23.311,VALID,345,VALID,0.0882813,
2011-05-27, 00:56:04,VALID,997.79,VALID,0,VALID,92.1353,VALID,0.112286,VALID,23.3287,VALID,349,VALID,0.711719,
2011-05-27, 00:57:04,VALID,997.785,VALID,0,VALID,92.1963,VALID,0,VALID,23.3287,VALID,5,VALID,0.742578,
2011-05-27, 00:58:04,VALID,997.753,VALID,0,VALID,92.1506,VALID,0,VALID,23.3092,VALID,5,VALID,0.349609,
2011-05-27, 00:59:04,VALID,997.758,VALID,0,VALID,92.12,VALID,0.112286,VALID,23.3092,VALID,5,VALID,0.614062,
2011-05-27, 01:00:04,VALID,997.735,VALID,0,VALID,92.059,VALID,0,VALID,23.2719,VALID,58,VALID,1.18477,
2011-05-27, 01:01:04,VALID,997.756,VALID,0,VALID,91.9293,VALID,0,VALID,23.2524,VALID,57,VALID,1.04531,
2011-05-27, 01:02:04,VALID,997.698,VALID,0,VALID,91.8377,VALID,0,VALID,23.2329,VALID,56,VALID,0.979688,
2011-05-27, 01:03:04,VALID,997.71,VALID,0,VALID,91.708,VALID,0,VALID,23.2329,VALID,48,VALID,0.853906,
2011-05-27, 01:04:04,VALID,997.697,VALID,0,VALID,91.6241,VALID,0,VALID,23.2134,VALID,36,VALID,1.23477,
2011-05-27, 01:05:04,VALID,997.692,VALID,0,VALID,91.6012,VALID,0,VALID,23.2134,VALID,27,VALID,1.12734,
2011-05-27, 01:06:04,VALID,997.707,VALID,0,VALID,91.5936,VALID,0,VALID,23.1939,VALID,25,VALID,0.721094,
2011-05-27, 01:07:04,VALID,997.71,VALID,0,VALID,91.6241,VALID,0,VALID,23.1762,VALID,13,VALID,0.621875,
2011-05-27, 01:08:04,VALID,997.68,VALID,0,VALID,91.6851,VALID,0,VALID,23.1354,VALID,8,VALID,0.886328,
2011-05-27, 01:09:04,VALID,997.662,VALID,0,VALID,91.8301,VALID,0,VALID,23.1354,VALID,356,VALID,1.13945,
2011-05-27, 01:10:04,VALID,997.649,VALID,0,VALID,91.9751,VALID,0,VALID,23.1354,VALID,356,VALID,0.423828,
2011-05-27, 01:11:04,VALID,997.657,VALID,0,VALID,92.0514,VALID,0,VALID,23.1549,VALID,356,VALID,0.288281,
2011-05-27, 01:12:04,VALID,997.664,VALID,0,VALID,92.1048,VALID,0,VALID,23.1354,VALID,356,VALID,0,
2011-05-27, 01:13:04,VALID,997.628,VALID,0,VALID,92.0666,VALID,0,VALID,23.0964,VALID,356,VALID,0,
2011-05-27, 01:14:04,VALID,997.628,VALID,0,VALID,92.0971,VALID,0,VALID,23.0964,VALID,75,VALID,0.527344,
2011-05-27, 01:15:04,VALID,997.604,VALID,0,VALID,92.1277,VALID,0.112286,VALID,23.0556,VALID,85,VALID,0.287109,
2011-05-27, 01:16:04,VALID,997.587,VALID,0,VALID,92.1429,VALID,0.112286,VALID,23.0378,VALID,85,VALID,0.157031,
2011-05-27, 01:17:04,VALID,997.599,VALID,0,VALID,92.1734,VALID,0,VALID,22.9971,VALID,85,VALID,0.00585938,
2011-05-27, 01:18:04,VALID,997.578,VALID,0,VALID,92.2345,VALID,0,VALID,23.0183,VALID,46,VALID,0.563672,
2011-05-27, 01:19:04,VALID,997.624,VALID,0,VALID,92.2879,VALID,0,VALID,22.9971,VALID,20,VALID,0.210938,
2011-05-27, 01:20:04,VALID,997.602,VALID,0,VALID,92.3337,VALID,0,VALID,22.9971,VALID,20,VALID,0.733984,
2011-05-27, 01:21:04,VALID,997.6,VALID,0,VALID,92.3566,VALID,0.112286,VALID,22.9971,VALID,20,VALID,0.645312,
2011-05-27, 01:22:04,VALID,997.619,VALID,0,VALID,92.3642,VALID,0,VALID,22.9758,VALID,20,VALID,0.410937,
2011-05-27, 01:23:04,VALID,997.607,VALID,0,VALID,92.3566,VALID,0.112286,VALID,22.9971,VALID,20,VALID,0.578906,
2011-05-27, 01:24:04,VALID,997.63,VALID,0,VALID,92.3566,VALID,0,VALID,23.0166,VALID,342,VALID,0.268359,
2011-05-27, 01:25:04,VALID,997.595,VALID,0,VALID,92.3413,VALID,0.112286,VALID,23.0361,VALID,342,VALID,0.124609,
2011-05-27, 01:26:04,VALID,997.601,VALID,0,VALID,92.2955,VALID,0,VALID,22.9971,VALID,43,VALID,0.725781,
2011-05-27, 01:27:04,VALID,997.566,VALID,0,VALID,92.2116,VALID,0,VALID,22.9581,VALID,78,VALID,0.999609,
2011-05-27, 01:28:04,VALID,997.547,VALID,0,VALID,92.1963,VALID,0.112286,VALID,22.9598,VALID,72,VALID,1.73359,
2011-05-27, 01:29:04,VALID,997.517,VALID,0,VALID,92.2116,VALID,0,VALID,22.9385,VALID,75,VALID,1.32852,
2011-05-27, 01:30:04,VALID,997.508,VALID,0,VALID,92.2421,VALID,0,VALID,22.919,VALID,69,VALID,1.86016,
2011-05-27, 01:31:04,VALID,997.46,VALID,0,VALID,92.265,VALID,0,VALID,22.9385,VALID,54,VALID,1.40078,
2011-05-27, 01:32:04,VALID,997.46,VALID,0,VALID,92.3031,VALID,0,VALID,22.9581,VALID,43,VALID,1.45234,
2011-05-27, 01:33:04,VALID,997.453,VALID,0,VALID,92.2726,VALID,0,VALID,22.9776,VALID,70,VALID,1.13008,
2011-05-27, 01:34:04,VALID,997.449,VALID,0,VALID,92.2116,VALID,0,VALID,22.9581,VALID,73,VALID,0.282422,
2011-05-27, 01:35:04,VALID,997.428,VALID,0,VALID,92.1277,VALID,0.112286,VALID,22.9385,VALID,62,VALID,1.03477,
2011-05-27, 01:36:04,VALID,997.484,VALID,0,VALID,92.0971,VALID,0.112286,VALID,22.9385,VALID,59,VALID,1.05586,
2011-05-27, 01:37:04,VALID,997.466,VALID,0,VALID,91.9903,VALID,0.112286,VALID,22.9385,VALID,44,VALID,1.08555,
2011-05-27, 01:38:04,VALID,997.467,VALID,0,VALID,91.8911,VALID,0,VALID,22.919,VALID,52,VALID,1.74414,
2011-05-27, 01:39:04,VALID,997.46,VALID,0,VALID,91.7385,VALID,0,VALID,22.9403,VALID,49,VALID,1.22695,
2011-05-27, 01:40:04,VALID,997.49,VALID,0,VALID,91.6623,VALID,0.112286,VALID,22.919,VALID,61,VALID,1.80977,
2011-05-27, 01:41:04,VALID,997.446,VALID,0,VALID,91.6775,VALID,0,VALID,22.9403,VALID,55,VALID,1.78086,
2011-05-27, 01:42:04,VALID,997.492,VALID,0,VALID,91.6394,VALID,0,VALID,22.8995,VALID,63,VALID,1.51406,
2011-05-27, 01:43:04,VALID,997.484,VALID,0,VALID,91.5478,VALID,0.112286,VALID,22.919,VALID,56,VALID,1.76836,
2011-05-27, 01:44:04,VALID,997.484,VALID,0,VALID,91.4181,VALID,0.112286,VALID,22.9581,VALID,59,VALID,1.6332,
2011-05-27, 01:45:04,VALID,997.511,VALID,0,VALID,91.3647,VALID,0,VALID,22.9581,VALID,73,VALID,1.62422,
2011-05-27, 01:46:04,VALID,997.487,VALID,0,VALID,91.2274,VALID,0,VALID,22.9581,VALID,61,VALID,1.6418,
2011-05-27, 01:47:04,VALID,997.52,VALID,0,VALID,91.1129,VALID,0,VALID,22.9581,VALID,62,VALID,1.88516,
2011-05-27, 01:48:04,VALID,997.552,VALID,0,VALID,91.0443,VALID,0,VALID,22.9776,VALID,75,VALID,1.81172,
2011-05-27, 01:49:04,VALID,997.522,VALID,0,VALID,90.9527,VALID,0,VALID,22.9581,VALID,88,VALID,1.74961,
2011-05-27, 01:50:04,VALID,997.506,VALID,0,VALID,90.7772,VALID,0.112286,VALID,22.9776,VALID,93,VALID,1.27227,
2011-05-27, 01:51:04,VALID,997.506,VALID,0,VALID,90.4568,VALID,0.112286,VALID,23.0166,VALID,95,VALID,1.62383,
2011-05-27, 01:52:04,VALID,997.482,VALID,0,VALID,90.0829,VALID,0,VALID,23.0751,VALID,109,VALID,1.63008,
2011-05-27, 01:53:04,VALID,997.489,VALID,0,VALID,89.6786,VALID,0,VALID,23.0946,VALID,106,VALID,1.93398,
2011-05-27, 01:54:04,VALID,997.481,VALID,0,VALID,89.2208,VALID,0.112286,VALID,23.1531,VALID,96,VALID,1.48164,
2011-05-27, 01:55:04,VALID,997.459,VALID,0,VALID,88.6562,VALID,0,VALID,23.2134,VALID,108,VALID,1.61758,
2011-05-27, 01:56:04,VALID,997.463,VALID,0,VALID,88.0382,VALID,0.112286,VALID,23.2702,VALID,99,VALID,0.901563,
2011-05-27, 01:57:04,VALID,997.456,VALID,0,VALID,87.7406,VALID,0,VALID,23.3092,VALID,103,VALID,1.44453,
2011-05-27, 01:58:04,VALID,997.455,VALID,0,VALID,87.3668,VALID,0.112286,VALID,23.3287,VALID,96,VALID,1.03711,
2011-05-27, 01:59:04,VALID,997.464,VALID,0,VALID,87.3515,VALID,0,VALID,23.3677,VALID,111,VALID,0.810547,
2011-05-27, 02:00:04,VALID,997.462,VALID,0,VALID,87.3363,VALID,0,VALID,23.3677,VALID,112,VALID,0.435547,
2011-05-27, 02:01:04,VALID,997.447,VALID,0,VALID,87.3973,VALID,0.112286,VALID,23.3482,VALID,115,VALID,0.365625,
2011-05-27, 02:02:04,VALID,997.459,VALID,0,VALID,87.6643,VALID,0.112286,VALID,23.3287,VALID,118,VALID,0.424609,
2011-05-27, 02:03:04,VALID,997.419,VALID,0,VALID,87.794,VALID,0.112286,VALID,23.2897,VALID,109,VALID,0.0253906,
2011-05-27, 02:04:04,VALID,997.41,VALID,0,VALID,87.9237,VALID,0,VALID,23.2702,VALID,155,VALID,0.114063,
2011-05-27, 02:05:04,VALID,997.443,VALID,0,VALID,87.9619,VALID,0.112286,VALID,23.2897,VALID,155,VALID,0,
2011-05-27, 02:06:04,VALID,997.485,VALID,0,VALID,87.9695,VALID,0.112286,VALID,23.3092,VALID,155,VALID,0,
2011-05-27, 02:07:04,VALID,997.452,VALID,0,VALID,87.9619,VALID,0.112286,VALID,23.3287,VALID,155,VALID,0,
2011-05-27, 02:08:04,VALID,997.482,VALID,0,VALID,88.0763,VALID,0.112286,VALID,23.3092,VALID,155,VALID,0,
2011-05-27, 02:09:04,VALID,997.476,VALID,0,VALID,88.145,VALID,0.112286,VALID,23.3092,VALID,250,VALID,0,
2011-05-27, 02:10:04,VALID,997.452,VALID,0,VALID,88.3205,VALID,0,VALID,23.3092,VALID,295,VALID,0.576953,
2011-05-27, 02:11:04,VALID,997.471,VALID,0,VALID,88.412,VALID,0,VALID,23.2915,VALID,312,VALID,0.633203,
2011-05-27, 02:12:04,VALID,997.457,VALID,0,VALID,88.6714,VALID,0.112286,VALID,23.2312,VALID,312,VALID,0.194531,
2011-05-27, 02:13:04,VALID,997.447,VALID,0,VALID,88.763,VALID,0,VALID,23.2117,VALID,312,VALID,0,
2011-05-27, 02:14:04,VALID,997.425,VALID,0,VALID,88.824,VALID,0,VALID,23.1921,VALID,312,VALID,0,
2011-05-27, 02:15:04,VALID,997.394,VALID,0,VALID,88.9843,VALID,0,VALID,23.1939,VALID,312,VALID,0,
2011-05-27, 02:16:04,VALID,997.393,VALID,0,VALID,89.1368,VALID,0,VALID,23.1336,VALID,312,VALID,0.470313,
2011-05-27, 02:17:04,VALID,997.351,VALID,0,VALID,89.3428,VALID,0.112286,VALID,23.0946,VALID,312,VALID,0.503906,
2011-05-27, 02:18:04,VALID,997.376,VALID,0,VALID,89.5489,VALID,0.112286,VALID,23.0166,VALID,312,VALID,0,
2011-05-27, 02:19:04,VALID,997.335,VALID,0,VALID,89.9837,VALID,0.112286,VALID,22.9776,VALID,312,VALID,0,
2011-05-27, 02:20:04,VALID,997.378,VALID,0,VALID,90.3118,VALID,0,VALID,22.9385,VALID,328,VALID,0,
2011-05-27, 02:21:04,VALID,997.41,VALID,0,VALID,90.3728,VALID,0.112286,VALID,22.8995,VALID,20,VALID,0,
2011-05-27, 02:22:04,VALID,997.43,VALID,0,VALID,90.411,VALID,0,VALID,22.8215,VALID,37,VALID,0,
2011-05-27, 02:23:05,VALID,997.469,VALID,0,VALID,90.4415,VALID,0.112286,VALID,22.802,VALID,37,VALID,0,
2011-05-27, 02:24:05,VALID,997.467,VALID,0,VALID,90.6399,VALID,0,VALID,22.7825,VALID,37,VALID,0.747656,
2011-05-27, 02:25:05,VALID,997.435,VALID,0,VALID,90.7238,VALID,0.112286,VALID,22.7842,VALID,12,VALID,1.19805,
2011-05-27, 02:26:05,VALID,997.441,VALID,0,VALID,90.7009,VALID,0.112286,VALID,22.7435,VALID,12,VALID,1.27422,
2011-05-27, 02:27:05,VALID,997.404,VALID,0,VALID,90.678,VALID,0.112286,VALID,22.7027,VALID,12,VALID,1.02969,
2011-05-27, 02:28:05,VALID,997.382,VALID,0,VALID,90.6933,VALID,0.112286,VALID,22.7045,VALID,12,VALID,1.08203,
2011-05-27, 02:29:05,VALID,997.358,VALID,0,VALID,90.7696,VALID,0,VALID,22.685,VALID,26,VALID,1.09492,
2011-05-27, 02:30:05,VALID,997.372,VALID,0,VALID,90.8611,VALID,0,VALID,22.6867,VALID,39,VALID,0.827344,
2011-05-27, 02:31:05,VALID,997.376,VALID,0,VALID,90.8688,VALID,0,VALID,22.6672,VALID,39,VALID,0.0871094,
2011-05-27, 02:32:05,VALID,997.409,VALID,0,VALID,90.9146,VALID,0,VALID,22.6672,VALID,39,VALID,0.0960938,
2011-05-27, 02:33:05,VALID,997.44,VALID,0,VALID,91.0366,VALID,0,VALID,22.7062,VALID,39,VALID,0,
2011-05-27, 02:34:05,VALID,997.454,VALID,0,VALID,91.0977,VALID,0,VALID,22.6867,VALID,39,VALID,0,
2011-05-27, 02:35:05,VALID,997.471,VALID,0,VALID,91.1511,VALID,0,VALID,22.6867,VALID,39,VALID,0,
2011-05-27, 02:36:05,VALID,997.443,VALID,0,VALID,91.2121,VALID,0,VALID,22.6867,VALID,39,VALID,0,
2011-05-27, 02:37:05,VALID,997.425,VALID,0,VALID,91.2884,VALID,0,VALID,22.7062,VALID,39,VALID,0,
2011-05-27, 02:38:05,VALID,997.426,VALID,0,VALID,91.3494,VALID,0,VALID,22.7257,VALID,39,VALID,0,
2011-05-27, 02:39:05,VALID,997.438,VALID,0,VALID,91.3647,VALID,0,VALID,22.7257,VALID,39,VALID,0,
2011-05-27, 02:40:05,VALID,997.445,VALID,0,VALID,91.3494,VALID,0,VALID,22.7257,VALID,336,VALID,0,
2011-05-27, 02:41:05,VALID,997.451,VALID,0,VALID,91.4181,VALID,0,VALID,22.7842,VALID,311,VALID,0.939453,
2011-05-27, 02:42:05,VALID,997.446,VALID,0,VALID,91.4334,VALID,0,VALID,22.8232,VALID,311,VALID,1.08008,
2011-05-27, 02:43:05,VALID,997.452,VALID,0,VALID,91.3952,VALID,0,VALID,22.8232,VALID,311,VALID,0.700391,
2011-05-27, 02:44:05,VALID,997.468,VALID,0,VALID,91.3418,VALID,0,VALID,22.8427,VALID,311,VALID,0.267188,
2011-05-27, 02:45:05,VALID,997.467,VALID,0,VALID,91.3189,VALID,0,VALID,22.841,VALID,311,VALID,0,
2011-05-27, 02:46:05,VALID,997.451,VALID,0,VALID,91.296,VALID,0.112286,VALID,22.8605,VALID,311,VALID,0,
2011-05-27, 02:47:05,VALID,997.459,VALID,0,VALID,91.2503,VALID,0,VALID,22.8605,VALID,311,VALID,0,
2011-05-27, 02:48:05,VALID,997.472,VALID,0,VALID,91.174,VALID,0,VALID,22.88,VALID,311,VALID,0,
2011-05-27, 02:49:05,VALID,997.466,VALID,0,VALID,91.1129,VALID,0,VALID,22.88,VALID,311,VALID,0,
2011-05-27, 02:50:05,VALID,997.492,VALID,0,VALID,91.0061,VALID,0,VALID,22.8818,VALID,311,VALID,0,
2011-05-27, 02:51:05,VALID,997.512,VALID,0,VALID,90.9527,VALID,0.112286,VALID,22.8215,VALID,17,VALID,0.112109,
2011-05-27, 02:52:05,VALID,997.526,VALID,0,VALID,90.9298,VALID,0,VALID,22.802,VALID,17,VALID,0.777734,
2011-05-27, 02:53:05,VALID,997.524,VALID,0,VALID,90.9603,VALID,0,VALID,22.724,VALID,17,VALID,0.813281,
2011-05-27, 02:54:05,VALID,997.574,VALID,0,VALID,91.2579,VALID,0,VALID,22.763,VALID,14,VALID,0.835547,
2011-05-27, 02:55:05,VALID,997.551,VALID,0,VALID,91.4105,VALID,0,VALID,22.7435,VALID,353,VALID,1.09375,
2011-05-27, 02:56:05,VALID,997.559,VALID,0,VALID,91.4563,VALID,0.112286,VALID,22.7435,VALID,351,VALID,0.932031,
2011-05-27, 02:57:05,VALID,997.577,VALID,0,VALID,91.4334,VALID,0,VALID,22.7435,VALID,9,VALID,0.0417969,
2011-05-27, 02:58:05,VALID,997.555,VALID,0,VALID,91.3342,VALID,0.112286,VALID,22.724,VALID,9,VALID,0,
2011-05-27, 02:59:05,VALID,997.583,VALID,0,VALID,91.235,VALID,0,VALID,22.7045,VALID,9,VALID,0,
2011-05-27, 03:00:05,VALID,997.585,VALID,0,VALID,91.2045,VALID,0,VALID,22.7257,VALID,9,VALID,0,
2011-05-27, 03:01:05,VALID,997.594,VALID,0,VALID,91.1053,VALID,0,VALID,22.685,VALID,9,VALID,0,
2011-05-27, 03:02:05,VALID,997.611,VALID,0,VALID,91.0366,VALID,0.112286,VALID,22.685,VALID,9,VALID,0,
2011-05-27, 03:03:05,VALID,997.587,VALID,0,VALID,90.968,VALID,0.112286,VALID,22.685,VALID,30,VALID,1.23516,
2011-05-27, 03:04:05,VALID,997.615,VALID,0,VALID,90.884,VALID,0,VALID,22.6655,VALID,30,VALID,1.18828,
2011-05-27, 03:05:05,VALID,997.616,VALID,0,VALID,90.8001,VALID,0.112286,VALID,22.6655,VALID,30,VALID,0.994141,
2011-05-27, 03:06:05,VALID,997.627,VALID,0,VALID,90.7391,VALID,0.112286,VALID,22.646,VALID,30,VALID,0.894531,
2011-05-27, 03:07:05,VALID,997.616,VALID,0,VALID,90.8535,VALID,0,VALID,22.6655,VALID,30,VALID,0.778906,
2011-05-27, 03:08:05,VALID,997.59,VALID,0,VALID,90.9527,VALID,0.112286,VALID,22.6655,VALID,30,VALID,1.07891,
2011-05-27, 03:09:05,VALID,997.637,VALID,0,VALID,90.8993,VALID,0.112286,VALID,22.6672,VALID,22,VALID,1.20078,
2011-05-27, 03:10:05,VALID,997.625,VALID,0,VALID,90.8001,VALID,0.112286,VALID,22.5874,VALID,16,VALID,0.836719,
2011-05-27, 03:11:05,VALID,997.668,VALID,0,VALID,90.823,VALID,0,VALID,22.5679,VALID,4,VALID,1.22422,
2011-05-27, 03:12:05,VALID,997.629,VALID,0,VALID,90.9909,VALID,0.112286,VALID,22.5892,VALID,17,VALID,1.60234,
2011-05-27, 03:13:05,VALID,997.664,VALID,0,VALID,91.09,VALID,0.112286,VALID,22.5679,VALID,28,VALID,1.75156,
2011-05-27, 03:14:05,VALID,997.614,VALID,0,VALID,91.0671,VALID,0,VALID,22.5484,VALID,27,VALID,1.67422,
2011-05-27, 03:15:05,VALID,997.694,VALID,0,VALID,91.09,VALID,0,VALID,22.5306,VALID,34,VALID,1.33164,
2011-05-27, 03:16:05,VALID,997.683,VALID,0,VALID,91.1511,VALID,0,VALID,22.4916,VALID,37,VALID,1.43398,
2011-05-27, 03:17:05,VALID,997.681,VALID,0,VALID,91.2731,VALID,0,VALID,22.4916,VALID,37,VALID,1.38398,
2011-05-27, 03:18:05,VALID,997.689,VALID,0,VALID,91.3037,VALID,0,VALID,22.4916,VALID,37,VALID,1.30703,
2011-05-27, 03:19:05,VALID,997.743,VALID,0,VALID,91.3571,VALID,0,VALID,22.4721,VALID,27,VALID,1.33633,
2011-05-27, 03:20:05,VALID,997.734,VALID,0,VALID,91.4181,VALID,0,VALID,22.4509,VALID,23,VALID,1.22695,
2011-05-27, 03:21:05,VALID,997.753,VALID,0,VALID,91.4639,VALID,0,VALID,22.4314,VALID,28,VALID,1.3375,
2011-05-27, 03:22:05,VALID,997.78,VALID,0,VALID,91.5249,VALID,0,VALID,22.4526,VALID,33,VALID,1.25117,
2011-05-27, 03:23:05,VALID,997.818,VALID,0,VALID,91.6012,VALID,0,VALID,22.4526,VALID,34,VALID,0.933594,
2011-05-27, 03:24:05,VALID,997.868,VALID,0,VALID,91.6928,VALID,0,VALID,22.4119,VALID,35,VALID,0.764844,
2011-05-27, 03:25:05,VALID,997.867,VALID,0,VALID,91.7691,VALID,0,VALID,22.4119,VALID,35,VALID,0.974219,
2011-05-27, 03:26:05,VALID,997.883,VALID,0,VALID,91.9064,VALID,0,VALID,22.4331,VALID,50,VALID,0.928516,
2011-05-27, 03:27:05,VALID,997.878,VALID,0,VALID,91.9827,VALID,0,VALID,22.4331,VALID,56,VALID,0.882031,
2011-05-27, 03:28:05,VALID,997.884,VALID,0,VALID,92.0437,VALID,0,VALID,22.4331,VALID,73,VALID,0.899609,
2011-05-27, 03:29:05,VALID,997.893,VALID,0,VALID,92.0819,VALID,0,VALID,22.4119,VALID,89,VALID,0.538672,
2011-05-27, 03:30:05,VALID,997.875,VALID,0,VALID,92.1048,VALID,0,VALID,22.4348,VALID,95,VALID,1.04141,
2011-05-27, 03:31:05,VALID,997.861,VALID,0,VALID,92.1429,VALID,0,VALID,22.4331,VALID,94,VALID,0.828516,
2011-05-27, 03:32:05,VALID,997.845,VALID,0,VALID,92.1429,VALID,0,VALID,22.4526,VALID,93,VALID,0.185547,
2011-05-27, 03:33:05,VALID,997.825,VALID,0,VALID,92.1582,VALID,0,VALID,22.4526,VALID,90,VALID,0.378906,
2011-05-27, 03:34:05,VALID,997.832,VALID,0,VALID,92.1582,VALID,0,VALID,22.4738,VALID,90,VALID,0.046875,
2011-05-27, 03:35:05,VALID,997.852,VALID,0,VALID,92.1353,VALID,0,VALID,22.4543,VALID,90,VALID,0,
2011-05-27, 03:36:05,VALID,997.866,VALID,0,VALID,92.1582,VALID,0,VALID,22.4331,VALID,90,VALID,0,
2011-05-27, 03:37:05,VALID,997.857,VALID,0,VALID,92.1658,VALID,0,VALID,22.4543,VALID,90,VALID,0,
2011-05-27, 03:38:05,VALID,997.82,VALID,0,VALID,92.1887,VALID,0,VALID,22.4738,VALID,90,VALID,0,
2011-05-27, 03:39:05,VALID,997.822,VALID,0,VALID,92.2345,VALID,0,VALID,22.4738,VALID,90,VALID,0,
2011-05-27, 03:40:05,VALID,997.795,VALID,0,VALID,92.2574,VALID,0,VALID,22.4933,VALID,90,VALID,0,
2011-05-27, 03:41:05,VALID,997.808,VALID,0,VALID,92.326,VALID,0,VALID,22.4933,VALID,91,VALID,0.317187,
2011-05-27, 03:42:05,VALID,997.797,VALID,0,VALID,92.3566,VALID,0,VALID,22.5128,VALID,110,VALID,0.694141,
2011-05-27, 03:43:05,VALID,997.8,VALID,0,VALID,92.3489,VALID,0,VALID,22.4916,VALID,114,VALID,0.214844,
2011-05-27, 03:44:05,VALID,997.794,VALID,0,VALID,92.3337,VALID,0,VALID,22.4933,VALID,114,VALID,0,
2011-05-27, 03:45:05,VALID,997.789,VALID,0,VALID,92.3108,VALID,0,VALID,22.4738,VALID,114,VALID,0,